Fairbanks, AK

5:20 AM AKDT on October 18, 2019 (GMT -0800)
Fairbanks International

Weather History for PAFA - May, 2019

Change the Weather History Date:

Thursday, May 9, 2019

  Actual Average Record
Temperature  
Mean Temperature 51 °F -  
Max Temperature 61 °F - 80 °F (1995)
Min Temperature 41 °F - -1 °F (1964)
Degree Days  
Heating Degree Days 14    
Month to date heating degree days 171  
Growing Degree Days 1 (Base 50)    
Moisture  
Dew Point 33 °F    
Average Humidity 53    
Maximum Humidity 89    
Minimum Humidity 19    
Precipitation  
Precipitation 0.01 in - 0.20 in (2002)
Month to date precipitation 0.22  
Year to date precipitation 2.70  
Snow  
Snow 0.00 in - - ()
Month to date snowfall T  
Snow Depth 0.00 in    
Sea Level Pressure  
Sea Level Pressure 30.12 in    
Wind  
Wind Speed 4 mph (ENE)    
Max Wind Speed 14 mph    
Max Gust Speed -    
Visibility 10 miles    
Events Rain    
T = Trace of Precipitation, MM = Missing Value Source: NWS Daily Summary

Daily Weather History Graph

Daily Weather History Graph

Search for Another Location

Airport or City:

Astronomy

May. 09, 2019 Rise Set
Actual Time 4:50 AM AKDT 10:48 PM AKDT
Civil Twilight 3:19 AM AKDT 12:22 AM AKDT
Nautical Twilight Sun does not rise Sun does not rise
Astronomical Twilight Sun does not rise Sun does not rise
Moon 8:03 AM AKDT (5/9) 3:47 AM AKDT (5/9)
Length of Visible Light 21h 02m
Length of Day
17h 58m
Waxing Crescent, 26% of the Moon is Illuminated
May 9
Waxing Crescent
May 11
First Quarter
May 18
Full
May 26
Last Quarter
Jun 3
New

Hourly Weather History & Observations

Time (AKDT) Temp. Windchill Dew Point Humidity Pressure Visibility Wind Dir Wind Speed Gust Speed Precip Events Conditions
12:53 AM 43.0 °F 41.3 °F 39.9 °F 89% 30.10 in 10.0 mi SSW 3.5 mph - N/A   Mostly Cloudy
1:53 AM 43.0 °F - 39.9 °F 89% 30.12 in 10.0 mi Calm Calm - 0.00 in Rain Light Rain
2:53 AM 43.0 °F 41.3 °F 39.9 °F 89% 30.14 in 9.0 mi South 3.5 mph - 0.01 in Rain Light Rain
3:53 AM 42.1 °F - 39.0 °F 89% 30.15 in 10.0 mi Calm Calm - 0.00 in   Overcast
4:53 AM 41.0 °F 39.0 °F 37.9 °F 89% 30.17 in 10.0 mi East 3.5 mph - N/A   Overcast
5:53 AM 41.0 °F 38.0 °F 37.9 °F 89% 30.18 in 10.0 mi ESE 4.6 mph - N/A   Mostly Cloudy
6:53 AM 43.0 °F - 39.0 °F 86% 30.19 in 10.0 mi Calm Calm - N/A   Mostly Cloudy
7:53 AM 44.1 °F - 39.0 °F 82% 30.20 in 10.0 mi Calm Calm - N/A   Mostly Cloudy
8:53 AM 46.9 °F - 37.0 °F 68% 30.21 in 10.0 mi SE 3.5 mph - N/A   Mostly Cloudy
9:53 AM 50.0 °F - 36.0 °F 59% 30.21 in 10.0 mi East 5.8 mph - N/A   Scattered Clouds
10:53 AM 51.1 °F - 35.1 °F 54% 30.20 in 10.0 mi Calm Calm - N/A   Scattered Clouds
11:53 AM 53.1 °F - 33.1 °F 47% 30.20 in 10.0 mi Variable 3.5 mph - N/A   Scattered Clouds
12:53 PM 55.9 °F - 30.9 °F 39% 30.18 in 10.0 mi Variable 3.5 mph - N/A   Scattered Clouds
1:53 PM 57.0 °F - 28.9 °F 34% 30.16 in 10.0 mi East 4.6 mph - N/A   Mostly Cloudy
2:53 PM 57.0 °F - 28.0 °F 33% 30.14 in 10.0 mi ESE 3.5 mph - N/A   Mostly Cloudy
3:53 PM 60.1 °F - 28.9 °F 31% 30.12 in 10.0 mi East 10.4 mph - N/A   Mostly Cloudy
4:53 PM 60.1 °F - 27.0 °F 28% 30.10 in 10.0 mi North 3.5 mph - N/A   Mostly Cloudy
5:53 PM 61.0 °F - 27.0 °F 27% 30.08 in 10.0 mi East 5.8 mph - N/A   Mostly Cloudy
6:53 PM 61.0 °F - 26.1 °F 26% 30.05 in 10.0 mi NNE 5.8 mph - N/A   Mostly Cloudy
7:53 PM 59.0 °F - 28.9 °F 32% 30.03 in 10.0 mi NE 13.8 mph - N/A   Mostly Cloudy
8:53 PM 59.0 °F - 28.9 °F 32% 30.00 in 10.0 mi NNE 9.2 mph - N/A   Mostly Cloudy
9:53 PM 57.0 °F - 28.9 °F 34% 29.98 in 10.0 mi NNE 10.4 mph - N/A   Mostly Cloudy
10:53 PM 55.0 °F - 28.0 °F 35% 29.95 in 10.0 mi NNE 12.7 mph - N/A   Mostly Cloudy
11:53 PM 53.1 °F - 28.9 °F 40% 29.91 in 10.0 mi NNE 10.4 mph - N/A   Mostly Cloudy